DELTA 1 DEB

Satellite information

Favourite Embed

Satellite Type and Status

DEBRISIN ORBIT

Key statistics

Satellite DELTA 1 DEB at a glance.

Uptime

18228

Days in orbit

Revolutions

≈ 13.5

Per day

Orbit

SSO

Sun Synchronous Orbit

Inclination

100.4

Latest

Satellite identification and parameters

Extended collection of information and parameters for DELTA 1 DEB.

Object identification

Identified? True

Debris? True

Object name: DELTA 1 DEB

International designator: 1975-052MH

Object number (NORAD): 42648

Object ID (CCSDS): 42648

Country: UNITED STATES OF AMERICA (US)

Current information (Y/N): Y

RCS size: SMALL

Orbital parameters

Period: 106.625 minutes

Inclination: 100.3509 deg

SMA: 7448.459 km

Apoapsis: 1221.019 km

Periapsis: 919.628 km

RAAN: 202.2978 deg

Eccentricy: 0.0202318

Argument of periapsis: 54.1336 deg

Mean anomaly: 307.8399 deg

Mean motion: 13.50526593 rev/day

Mean motion (dot): 0.00006939 rev/day2

B* drag term: 0.0095811 1/REarth

Two-line elements (TLE)

Creation date: April 27, 2025, 6:35 p.m.

Reference frame: TEME

Reference center: EARTH

Epoch: April 27, 2025, 11:10 a.m. UTC

TLE line 0: 0 DELTA 1 DEB

TLE line 1: 1 42648U 75052MH 25117.46571695 .00006939 00000-0 95811-2 0 9995

TLE line 2: 2 42648 100.3509 202.2978 0202318 54.1336 307.8399 13.50526593556196

Live tracking on map

Real-time ground track for satellite DELTA 1 DEB.

In-orbit conjunctions

A list of the most updated potential collisions computed for object DELTA 1 DEB.

Target Orbit TCA Probability of collision Miss distance Type
CZ-6A DEB LEO 2025-03-02 07:40:58 0.0003583476 327.0 (m) DEBRIS

Associated space launch

Experimental meteorological satellite

DELTA 1 DEB was lifted into orbit during the mission ‘Delta 2910 | Nimbus 6’, on board a Delta 2910 space rocket.

The launch took place on June 12, 1975, 8:12 a.m. from Space Launch Complex 2W.

For more information about the launch, click the button.

Launch to space Delta 2910 | Nimbus 6
Delta 2910 | Nimbus 6

Agency: N/A

Status: Launch Successful

Launch date: June 12, 1975, 8:12 a.m. UTC

Rocket: Delta 2910

Launch pad: Space Launch Complex 2W

Location: Vandenberg SFB, CA, USA

...

Latest news about this satellite

There are no fresh news available about this satellite. Check back as we update our databases every day.


Newsletter sign-up

Weekly statistics, charts and insights to help you stay on top of the space industry.